I8ZSE-10 Weather Reports


time (UTC)temp
F
wind
direction
speed
knots
gust
knots
rain 1hr
in
rain 24hr
in
rain mn
in
humidity
%
barometer
mb
20260507021208 56 224 0.9 1.7 4.71 1.15 9.89 92 1015.5
20260507020208 56 271 0.9 1.7 4.70 1.07 9.09 92 1015.4
20260507015208 55 267 1.7 2.6 4.70 9.94 8.31 93 1015.3
20260507014208 55 274 2.6 3.5 4.69 9.16 7.52 92 1015.2
20260507013209 56 252 1.7 2.6 4.65 8.37 6.74 91 1015.2
20260507012208 55 204 1.7 2.6 4.59 7.59 5.96 94 1015.1
20260507011208 56 258 1.7 2.6 4.45 6.81 5.17 91 1015.1
20260507010208 56 235 1.7 2.6 4.21 6.02 4.39 90 1015.1
20260507005208 56 242 0.9 1.7 3.84 5.24 3.61 91 1015.1
20260507004208 56 275 1.7 2.6 3.37 4.46 2.83 91 1015.3
20260507003208 56 250 1.7 2.6 2.89 3.71 2.08 92 1015.5
20260507002208 56 263 1.7 2.6 2.41 2.99 1.36 92 1015.7
20260507001208 56 253 1.7 3.5 2.02 2.35 7.21 92 1015.7
20260507000208 56 242 1.7 3.5 1.65 1.81 1.84 91 1015.9
20260506235208 55 256 2.6 4.3 1.33 1.39 1.39 92 1015.8
20260506234208 55 250 2.6 4.3 1.05 1.09 1.09 92 1015.8
20260506233208 55 252 1.7 3.5 8.04 8.27 8.27 93 1015.7
20260506232208 55 260 1.7 3.5 5.73 5.81 5.81 93 1015.6
20260506231108 54 260 1.7 3.5 3.29 3.29 3.29 92 1015.5
20260506230008 55 250 1.7 2.6 1.34 1.34 1.34 90 1015.6
20260506225008 56 267 1.7 3.5 0.54 0.54 0.54 86 1015.7
20260506224008 56 248 1.7 2.6 0.33 0.33 0.33 84 1015.7
20260506223008 57 241 1.7 2.6 0.20 0.20 0.20 82 1015.8
20260506222008 57 209 1.7 2.6 0.06 0.06 0.06 81 1016.2
20260506221008 57 238 1.7 2.6 0.00 0.00 0.00 81 1016.3
20260506220008 57 248 1.7 2.6 0.00 0.00 0.00 82 1016.2
20260506215008 57 244 2.6 3.5 0.00 0.00 0.00 81 1016.2
20260506214008 57 265 1.7 3.5 0.00 0.00 0.00 81 1016.3
20260506213008 57 252 2.6 3.5 0.00 0.00 0.00 80 1016.3
20260506212008 57 264 1.7 3.5 0.00 0.00 0.00 80 1016.4
20260506211008 57 279 1.7 3.5 0.00 0.00 0.00 80 1016.4
20260506210008 57 271 2.6 4.3 0.00 0.00 0.00 79 1016.5
20260506205008 58 284 3.5 5.2 0.00 0.00 0.00 76 1016.7
20260506203008 58 255 3.5 6.1 0.00 0.00 0.00 73 1016.4
20260506202008 58 268 2.6 4.3 0.00 0.00 0.00 71 1016.3
20260506201008 59 220 2.6 4.3 0.00 0.00 0.00 68 1016.3
20260506200008 60 274 2.6 4.3 0.00 0.00 0.00 64 1016.3
20260506195008 60 265 2.6 4.3 0.00 0.00 0.00 62 1016.1
20260506194008 60 254 2.6 4.3 0.00 0.00 0.00 62 1016.0
20260506193008 60 271 2.6 4.3 0.00 0.00 0.00 61 1015.8
20260506192008 60 261 2.6 4.3 0.00 0.00 0.00 60 1015.6
20260506191008 61 272 2.6 3.5 0.00 0.00 0.00 61 1015.5
20260506190008 60 261 2.6 3.5 0.00 0.00 0.00 63 1015.4
20260506185008 60 262 2.6 4.3 0.00 0.00 0.00 64 1015.3
20260506184008 61 259 2.6 4.3 0.00 0.00 0.00 64 1015.3
20260506183008 62 268 2.6 4.3 0.00 0.00 0.00 64 1015.4
20260506182008 62 260 3.5 5.2 0.00 0.00 0.00 64 1015.5
20260506181008 62 263 3.5 5.2 0.00 0.00 0.00 64 1015.5
20260506180008 63 248 3.5 5.2 0.00 0.00 0.00 63 1015.5
20260506175008 63 253 2.6 4.3 0.00 0.00 0.00 62 1015.6
20260506174008 63 250 2.6 4.3 0.00 0.00 0.00 62 1015.6
20260506173008 64 262 2.6 5.2 0.00 0.00 0.00 61 1015.7
20260506172008 64 271 2.6 5.2 0.00 0.00 0.00 60 1015.7
20260506171008 64 263 2.6 4.3 0.00 0.00 0.00 61 1015.6
20260506170008 65 257 3.5 5.2 0.00 0.00 0.00 61 1015.7
20260506165008 65 258 4.3 5.2 0.00 0.00 0.00 60 1015.8
20260506164008 66 251 4.3 5.2 0.00 0.00 0.00 60 1015.8
20260506163008 66 254 4.3 5.2 0.00 0.00 0.00 60 1015.9
20260506162008 67 209 4.3 6.1 0.00 0.00 0.00 59 1016.0
20260506161008 67 209 4.3 6.1 0.00 0.00 0.00 58 1015.9
20260506160008 67 274 4.3 5.2 0.00 0.00 0.00 58 1015.9
20260506155008 67 242 3.5 5.2 0.00 0.00 0.00 58 1015.9
20260506154008 68 230 3.5 5.2 0.00 0.00 0.00 56 1015.9
20260506153008 68 287 3.5 4.3 0.00 0.00 0.00 54 1016.0
20260506152008 68 262 3.5 4.3 0.00 0.00 0.00 53 1016.0
20260506151008 69 276 3.5 4.3 0.00 0.00 0.00 52 1016.1
20260506150008 69 277 3.5 4.3 0.00 0.00 0.00 52 1016.2
20260506145008 69 282 3.5 4.3 0.00 0.00 0.00 52 1016.3
20260506144008 69 269 3.5 4.3 0.00 0.00 0.00 52 1016.3
20260506143008 69 265 3.5 5.2 0.00 0.00 0.00 51 1016.3
20260506142008 70 255 4.3 6.1 0.00 0.00 0.00 50 1016.4
20260506141008 71 198 4.3 6.1 0.00 0.00 0.00 49 1016.5
20260506140008 71 278 5.2 6.1 0.00 0.00 0.00 49 1016.5
20260506135008 70 266 4.3 6.1 0.00 0.00 0.00 48 1016.5
20260506134008 71 254 4.3 5.2 0.00 0.00 0.00 47 1016.5
20260506133008 70 268 4.3 5.2 0.00 0.00 0.00 47 1016.5
20260506132008 70 245 4.3 6.1 0.00 0.00 0.00 47 1016.5
20260506131008 70 209 4.3 6.1 0.00 0.00 0.00 48 1016.6
20260506130008 71 194 4.3 6.1 0.00 0.00 0.00 47 1016.7
20260506125008 71 152 5.2 7.0 0.00 0.00 0.00 46 1016.8
20260506124008 71 211 4.3 5.2 0.00 0.00 0.00 48 1016.9
20260506123008 71 190 3.5 4.3 0.00 0.00 0.00 49 1016.8
20260506122008 71 242 3.5 5.2 0.00 0.00 0.00 49 1016.9
20260506121008 71 189 4.3 5.2 0.00 0.00 0.00 50 1017.0
20260506120008 71 248 4.3 5.2 0.00 0.00 0.00 49 1017.0
20260506115008 71 235 4.3 5.2 0.00 0.00 0.00 48 1017.1
20260506114008 71 193 3.5 4.3 0.00 0.00 0.00 50 1017.0
20260506113008 70 211 2.6 2.6 0.00 0.00 0.00 52 1017.0
20260506112008 70 256 1.7 1.7 0.00 0.00 0.00 54 1016.9
20260506111008 69 169 2.6 2.6 0.00 0.00 0.00 55 1016.9
20260506110008 69 212 3.5 3.5 0.00 0.00 0.00 56 1016.9
20260506105008 69 251 2.6 3.5 0.00 0.00 0.00 56 1016.8
20260506104008 68 256 2.6 3.5 0.00 0.00 0.00 58 1016.8
20260506103008 68 204 2.6 3.5 0.00 0.00 0.00 59 1016.9
20260506102008 68 209 2.6 3.5 0.00 0.00 0.00 59 1017.0
20260506101008 68 268 2.6 2.6 0.00 0.00 0.00 59 1017.1
20260506100008 68 277 1.7 1.7 0.00 0.00 0.00 59 1017.2
20260506095008 67 282 1.7 2.6 0.00 0.00 0.00 60 1017.1
20260506094008 67 222 1.7 2.6 0.00 0.00 0.00 61 1017.0
20260506093008 66 228 1.7 2.6 0.00 0.00 0.00 63 1017.0
20260506092008 65 218 1.7 2.6 0.00 0.00 0.00 64 1017.1
20260506091008 65 209 0.9 1.7 0.00 0.00 0.00 66 1017.0
20260506090008 64 277 0.9 1.7 0.00 0.00 0.00 67 1016.9
20260506085008 64 270 1.7 2.6 0.00 0.00 0.00 67 1016.9
20260506084008 64 250 1.7 2.6 0.00 0.00 0.00 68 1016.8
20260506083008 63 254 0.9 1.7 0.00 0.00 0.00 69 1016.6
20260506082009 62 264 1.7 2.6 0.00 0.00 0.00 70 1016.5
20260506081008 62 267 1.7 2.6 0.00 0.00 0.00 72 1016.4
20260506073008 62 278 0.9 0.9 0.00 0.00 0.00 73 1016.2
20260506072008 61 234 0.9 1.7 0.00 0.00 0.00 74 1016.1
20260506071008 61 184 0.9 1.7 0.00 0.00 0.00 74 1016.1
20260506062008 59 295 0.9 1.7 0.00 0.00 0.00 79 1015.8
20260506061008 59 289 0.9 0.9 0.00 0.00 0.00 79 1015.7
20260506051008 57 269 0.9 1.7 0.00 0.00 0.00 81 1015.1
20260506045008 57 264 0.0 0.9 0.00 0.00 0.00 81 1015.2
20260506044008 57 265 0.9 0.9 0.00 0.00 0.00 81 1015.1
20260506043008 56 276 0.9 0.9 0.00 0.00 0.00 81 1015.0
20260506042008 57 276 0.9 0.9 0.00 0.00 0.00 80 1015.0
20260506041008 57 280 0.9 0.9 0.00 0.00 0.00 79 1015.0
20260506040008 57 268 0.9 0.9 0.00 0.00 0.00 80 1014.9
20260506035008 57 283 0.9 1.7 0.00 0.00 0.00 81 1014.8
20260506034008 56 266 0.9 1.7 0.00 0.00 0.00 82 1014.8
20260506033008 57 275 0.9 1.7 0.00 0.00 0.00 80 1014.9
20260506032008 57 269 0.9 1.7 0.00 0.00 0.00 79 1014.9
20260506031008 57 273 1.7 2.6 0.00 0.00 0.00 78 1015.0
20260506030008 57 257 1.7 2.6 0.00 0.00 0.00 78 1015.0
20260506025008 57 256 1.7 1.7 0.00 0.00 0.00 78 1015.1
20260506024008 57 277 1.7 2.6 0.00 0.00 0.00 78 1015.1
20260506023008 57 258 1.7 2.6 0.00 0.00 0.00 77 1015.2
20260506022008 58 257 1.7 2.6 0.00 0.00 0.00 77 1015.3